Location: Dal�� Lhota
(48.7500°N, 14.0167°E)
Time: 01:20:36
(UTC+00:00)

Vanguard 3 - Pass Details

Date: 02 August 2021
Orbit: 510 x 3260 km, 33.3° (Epoch: 16 September)

Event Time Altitude Azimuth Distance (km) Brightness Sun altitude
Rises 14:39:47 0° 197° (SSW) 5,001 11.6 37.7°
Reaches altitude 10° 14:43:44 10° 182° (S) 4,436 11.2 37.0°
Maximum altitude 14:52:52 23° 137° (SE) 4,295 10.8 35.6°
Drops below altitude 10° 15:04:48 10° 96° (E) 5,973 11.2 33.7°
Sets 15:11:22 0° 84° (E) 7,188 11.4 32.6°
